{"data":{"norad_id":67419,"epoch":"2026-05-24T18:22:05.928960Z","epoch_age_seconds":95226,"freshness":"FRESH","line1":"1 67419U 26005R   26144.76534640  .00013175  00000+0  48738-3 0  9991","line2":"2 67419  43.0029 168.1424 0001232 284.1930  75.8784 15.27584819 20335","mean_motion":15.27584819,"eccentricity":0.0001232,"inclination_deg":43.0029,"raan_deg":168.1424,"arg_perigee_deg":284.193,"mean_anomaly_deg":75.8784,"bstar":0.00048738,"rev_number":2033,"period_min":94.266451334772,"perigee_km":482.18936990868,"apogee_km":483.87996260724,"semimajor_km":6861.171666258,"source":"CELESTRAK","updated_at":"2026-05-25T13:38:21.555656Z"}}